Regional Weather Roundup
Issued by NWS Jackson, KY

Home | Current Version | Previous Version | Graphics & Text | Print | Product List | Glossary On
Versions: 1 2 3 4 5 6 7 8 9 10 11 12 13 14 15 16 17 18 19 20 21 22 23 24 25 26 27 28
000
ASUS43 KJKL 152110
RWRJKL

EAST KENTUCKY HOURLY WEATHER ROUNDUP
NATIONAL WEATHER SERVICE JACKSON KY
500 PM EDT TUE AUG 15 2017

NOTE: "FAIR" INDICATES FEW OR NO CLOUDS BELOW 12,000 FEET WITH
NO SIGNIFICANT WEATHER AND/OR OBSTRUCTIONS TO VISIBILITY.

* THESE REPORTS ARE NOT UNDER NWS QUALITY CONTROL AND MAY NOT
  REPORT WEATHER SUCH AS PRECIPITATION AND FOG.

KYZ079-080-083-085-087-088-110-112-115-119-120-152200
...EASTERN KENTUCKY...

CITY           SKY/WX    TMP DP  RH WIND       PRES   REMARKS
JACKSON        MOSUNNY   82  70  66 CALM      29.95F
LONDON         PTSUNNY   78  73  84 NE3       29.95F
SOMERSET*      CLOUDY    82  70  65 W7        29.95F
MONTICELLO*    MOSUNNY   83  73  72 NW7G16    29.96F
WILLIAMSBURG*  PTCLDY    82  72  69 W6        29.94F
MIDDLESBORO*   MOSUNNY   85  70  60 CALM      29.94F
HARLAN APT*    PTCLDY    81  70  69 CALM      29.96S
PIKE CO APT*   CLOUDY    81  73  75 CALM      29.96S
BIG SANDY APT* PTCLDY    82  72  70 CALM      29.94F
MOREHEAD APT*  PTCLDY    84  68  58 NW5       29.95S
$$

KYZ035-036-041-042-044-050-067-078-099-152200
...CENTRAL KENTUCKY...

CITY           SKY/WX    TMP DP  RH WIND       PRES   REMARKS
MT STERLING*   MOSUNNY   86  70  58 N3        29.95S HX  90
FLEMING/MASON* SUNNY     85  68  56 N8        29.94S
DANVILLE*      MOSUNNY   86  68  54 N6        29.95F
LEXINGTON      CLOUDY    86  67  52 W8        29.94F
FRANKFORT      CLOUDY    87  67  51 VRB5      29.92F HX  90
LOUISVILLE     PTSUNNY   90  66  45 NW7       29.90F HX  92
LEBANON*         N/A     86  68  54 NW6       29.93F
GLASGOW*       MOSUNNY   85  70  61 SW8       29.93F
BOWLING GREEN  PTSUNNY   85  72  65 W9        29.93F HX  91
$$

KYZ091>093-OHZ055-061-077-WVZ005-015-034-035-042-152200
...SOUTHERN OHIO/WEST VIRGINIA...

CITY           SKY/WX    TMP DP  RH WIND       PRES   REMARKS
COVINGTON      MOSUNNY   86  69  56 W5        29.93F HX  90
COLUMBUS       MOSUNNY   87  64  46 W8        29.90F
DAYTON         MOSUNNY   86  64  47 SW8       29.94S
WILMINGTON     CLOUDY    86  69  56 W8        29.93S HX  90
HUNTINGTON     PTSUNNY   86  71  60 SW5       29.90F HX  91
CHARLESTON     MOSUNNY   85  69  58 NW6       29.91F
PINEVILLE*     CLOUDY    78  73  82 MISG      30.01S
BECKLEY        MOSUNNY   80  67  64 N9        30.00S
BLUEFIELD      PTSUNNY   74  66  76 NW6       30.03S
LOGAN CO APT*    N/A     82  70  65 W7        29.96R
$$

VAZ002-007-008-TNZ017-027-036-066-071-152200
...SOUTHWEST VIRGINIA/EAST TENNESSEE...

CITY           SKY/WX    TMP DP  RH WIND       PRES   REMARKS
WISE*          MOSUNNY   77  66  69 NW6       30.04R
JONESVILLE*      N/A     84  70  61 W3        29.97F
ABINGDON*      MOSUNNY   83  70  65 NW6       29.99S
BRISTOL        RAIN      77  74  90 CALM      29.97R
MORRISTOWN*    PTCLDY    86  70  58 NW6       29.94S HX  90
SEVIERVILLE*   CLEAR     90  66  45 W5        29.92F HX  92
KNOXVILLE      PTSUNNY   87  67  51 W5        29.92F HX  90
LAFOLLETTE*    PTCLDY    86  70  58 VRB5      29.97F HX  90
OAK RIDGE      MOSUNNY   89  68  49 VRB3      29.93F HX  93
CROSSVILLE     PTSUNNY   82  67  60 W13       30.00F
NASHVILLE      PTSUNNY   88  71  57 N9        29.92F HX  94
$$

...KEY TO REMARKS...
VSB - VISIBILITY IN MILES
WCI - WIND CHILL INDEX
HX  - HEAT INDEX

$$




USA.gov is the U.S. government's official web portal to all federal, state and local government web resources and services.